Location: Unspecified
(46.0164°N, 0.0000°E)
Time: 19:30:42
(UTC+00:00)

USA 374 - Visible Passes

Search period start: 04 April 2026 00:00
Search period end: 14 April 2026 00:00
Orbit: 575 x 579 km, 70.0° (Epoch: 22 November)

Date Brightness Start Highest point End Pass type
(mag) Time Alt. Az. Time Alt. Az. Time Alt. Az.
4 Apr ? 21:53:16 13° NNE 21:53:16 13° NNE 21:53:45 10° NNE visible
4 Apr ? 23:29:27 11° NNW 23:29:27 11° NNW 23:30:05 10° NNW visible
5 Apr ? 21:55:57 22° N 21:55:57 22° N 21:57:37 10° NNE visible
6 Apr ? 04:34:25 10° NNE 04:36:09 12° NE 04:37:54 10° ENE visible
6 Apr ? 20:22:00 15° ENE 20:22:00 15° ENE 20:22:52 10° NE visible
6 Apr ? 21:58:06 31° NW 21:58:06 31° NW 22:01:26 10° N visible
7 Apr ? 04:37:39 10° N 04:40:23 16° NE 04:43:04 10° E visible
7 Apr ? 20:22:47 40° ESE 20:23:06 41° ESE 20:27:05 10° NE visible
7 Apr ? 21:58:41 12° W 22:01:41 23° NW 22:05:08 10° N visible
8 Apr ? 04:41:12 10° N 04:44:32 22° NE 04:47:51 10° E visible
8 Apr ? 20:22:49 10° SSW 20:26:59 63° ESE 20:31:11 10° NNE visible
8 Apr ? 22:02:58 10° W 22:05:49 17° NW 22:08:42 10° N visible
9 Apr ? 04:44:53 10° N 04:48:39 30° NE 04:52:23 10° ESE visible
9 Apr ? 20:26:42 10° SSW 20:30:56 85° WNW 20:35:11 10° NNE visible
9 Apr ? 22:08:01 10° WNW 22:10:01 13° NW 22:12:03 10° NNW visible
10 Apr ? 04:48:39 10° NNW 04:52:43 42° ENE 04:56:45 10° SE visible
10 Apr ? 20:30:45 10° SW 20:34:54 57° WNW 20:39:06 10° NNE visible
11 Apr ? 03:16:37 10° NNE 03:17:25 10° NE 03:18:13 10° NE visible
11 Apr ? 20:34:58 10° SW 20:38:55 39° NW 20:42:55 10° NNE visible
12 Apr ? 03:19:23 10° N 03:21:40 14° NE 03:23:55 10° ENE visible
12 Apr ? 20:39:21 10° WSW 20:43:01 28° NW 20:46:41 10° N visible
13 Apr ? 03:22:48 10° N 03:25:51 19° NE 03:28:52 10° E visible
13 Apr ? 20:43:57 10° W 20:47:08 20° NW 20:50:20 10° N visible
